This is the latest recevied weather packets stored in our database for station/object K8GLX. If no packets are shown the sender has not sent any weather packets the latest 10 day(s).
| Time | Temp. | Humidity | Pressure | Rain* | Wind** | Luminosity | Snow |
|---|---|---|---|---|---|---|---|
| 1777667534 | 5° C | 82% | 1013.3 hPa | 0.51 mm | - | 230 W/m² | - |
| 1777667325 | 5° C | 83% | 1013.1 hPa | 0.51 mm | - | 270 W/m² | - |
| 1777667039 | 5.56° C | 85% | 1013.4 hPa | 0.76 mm | - | 223 W/m² | - |
| 1777666746 | 5.56° C | 85% | 1013.7 hPa | 0.76 mm | - | 311 W/m² | - |
| 1777666462 | 5° C | 85% | 1013.5 hPa | 0.51 mm | - | 297 W/m² | - |
| 1777666144 | 5° C | 84% | 1013.5 hPa | 0.51 mm | - | 242 W/m² | - |
| 1777665862 | 5° C | 84% | 1013.5 hPa | 0.51 mm | - | 277 W/m² | - |
| 1777665429 | 5° C | 84% | 1013.5 hPa | 0.51 mm | - | 234 W/m² | - |
| 1777665135 | 5° C | 84% | 1013.4 hPa | 0.51 mm | - | 185 W/m² | - |
| 1777664829 | 5° C | 84% | 1013.4 hPa | 0.51 mm | - | 186 W/m² | - |
| 1777664535 | 5° C | 84% | 1013.4 hPa | 0.25 mm | - | 211 W/m² | - |
| 1777664229 | 5° C | 85% | 1013.7 hPa | 0.25 mm | - | 185 W/m² | - |
| 1777663934 | 5° C | 86% | 1013.2 hPa | 0.25 mm | - | 153 W/m² | - |
| 1777663629 | 5° C | 88% | 1013.5 hPa | 0.25 mm | - | 166 W/m² | - |
| 1777663335 | 4.44° C | 88% | 1013.6 hPa | 0 mm | - | 160 W/m² | - |
| 1777663029 | 5° C | 89% | 1013.6 hPa | 0 mm | - | 182 W/m² | - |
| 1777662735 | 5° C | 90% | 1013.6 hPa | 0 mm | - | 154 W/m² | - |
| 1777662429 | 4.44° C | 90% | 1013.4 hPa | 0.25 mm | - | 201 W/m² | - |
| 1777662135 | 4.44° C | 91% | 1013.4 hPa | 0.25 mm | - | 174 W/m² | - |
| 1777661829 | 4.44° C | 92% | 1013.5 hPa | 0.25 mm | - | 193 W/m² | - |
| 1777661535 | 4.44° C | 92% | 1013.3 hPa | 0.25 mm | - | 199 W/m² | - |
| 1777661232 | 4.44° C | 93% | 1013.4 hPa | 0.25 mm | - | 132 W/m² | - |
| 1777660936 | 4.44° C | 93% | 1013.4 hPa | 0.25 mm | - | 193 W/m² | - |
| 1777660629 | 4.44° C | 93% | 1013.3 hPa | 0.51 mm | - | 182 W/m² | - |
| 1777660335 | 4.44° C | 93% | 1013.1 hPa | 0.51 mm | - | 172 W/m² | - |
* Rain latest hour (hover to see other rain measurements)
** Current wind speed in m/s (hover to see current wind gust speed)